Location: Beugnon
(47.6222°N, 3.7850°E)
Time: 06:29:20
(UTC+00:00)

Meteor 1-11 - Pass Details

Date: 09 April 2020
Orbit: 841 x 886 km, 81.2° (Epoch: 29 May)

Event Time Altitude Azimuth Distance (km) Brightness Sun altitude
Rises 19:34:21 0° 347° (NNW) 3,484 8.0 -11.6°
Reaches altitude 10° 19:36:49 10° 346° (NNW) 2,536 7.3 -12.0°
Maximum altitude 19:42:35 77° 262° (W) 892 4.4 -12.8°
Drops below altitude 10° 19:48:13 10° 177° (S) 2,487 6.3 -13.7°
Sets 19:50:37 0° 176° (S) 3,412 7.0 -14.0°
